Location: Melbourne
(37.8170°S, 144.9670°E)
Time: 14:54:10
(UTC+10:00)

ISS - All Passes

Search period start: 30 August 2016 00:00
Search period end: 09 September 2016 00:00
Orbit: 402 x 406 km, 51.6° (Epoch: 29 August)

Date Brightness Start Highest point End Pass type
(mag) Time Alt. Az. Time Alt. Az. Time Alt. Az.
30 Aug - 01:45:58 10° SSW 01:48:56 29° SSE 01:51:53 10° E night (unlit)
30 Aug - 03:22:27 10° WSW 03:25:22 28° NW 03:28:16 10° NNE night (unlit)
30 Aug - 18:24:54 10° N 18:27:24 20° NE 18:29:57 10° E visible
30 Aug - 20:00:36 10° WNW 20:03:42 37° SW 20:06:50 10° SE visible
30 Aug - 21:40:14 10° SSW 21:40:57 10° SSW 21:41:40 10° S night (unlit)
31 Aug - 00:53:52 10° SSW 00:56:19 19° SSE 00:58:46 10° ESE night (unlit)
31 Aug - 02:29:45 10° WSW 02:33:03 60° NW 02:36:19 10° NE night (unlit)
31 Aug - 17:35:02 10° NE 17:35:13 10° NE 17:35:23 10° ENE daylight
31 Aug - 19:07:56 10° NW 19:11:13 72° SW 19:14:33 10° SE visible
31 Aug - 20:46:21 10° SW 20:48:11 14° SSW 20:50:02 10° SSE visible
01 Sep - 00:01:55 10° S 00:03:37 13° SSE 00:05:20 10° SE night (unlit)
01 Sep - 01:37:19 10° SW 01:40:38 65° SE 01:43:55 10° ENE night (unlit)
01 Sep - 03:15:33 10° WNW 03:16:41 11° NW 03:17:48 10° NNW night (unlit)
01 Sep - 18:15:35 10° NW 18:18:48 53° NE 18:22:04 10° ESE daylight
01 Sep - 19:52:58 10° WSW 19:55:29 20° SSW 19:58:03 10° SSE visible
01 Sep - 23:10:31 10° S 23:10:51 10° SSE 23:11:11 10° SSE night (unlit)
02 Sep - 00:45:02 10° SW 00:48:07 34° SSE 00:51:11 10° E night (unlit)
02 Sep - 02:21:47 10° WSW 02:24:27 23° NW 02:27:07 10° N night (unlit)
02 Sep - 17:23:42 10° N 17:26:29 25° NE 17:29:18 10° ESE daylight
02 Sep - 18:59:53 10° W 19:02:53 31° SSW 19:05:54 10° SSE visible
02 Sep - 23:52:53 10° SSW 23:55:31 21° SSE 23:58:09 10° E night (unlit)
03 Sep - 01:28:56 10° WSW 01:32:09 46° NW 01:35:20 10° NNE night (unlit)
03 Sep - 16:32:40 10° NNE 16:34:15 13° NE 16:35:50 10° E daylight
03 Sep - 18:07:05 10° WNW 18:10:21 57° SW 18:13:38 10° SE daylight
03 Sep - 19:45:52 10° SW 19:47:24 13° SSW 19:48:57 10° S visible
03 Sep - 23:00:51 10° SSW 23:02:50 15° SSE 23:04:49 10° ESE night (unlit)
04 Sep - 00:36:25 10° SW 00:39:45 82° SE 00:43:03 10° NE night (unlit)
04 Sep - 17:14:37 10° NW 17:17:53 69° NE 17:21:12 10° SE daylight
04 Sep - 18:52:21 10° WSW 18:54:41 17° SSW 18:57:01 10° SSE visible
04 Sep - 22:09:05 10° S 22:10:04 11° SSE 22:11:03 10° SSE night (unlit)
04 Sep - 23:44:04 10° SW 23:47:15 41° SE 23:50:25 10° ENE night (unlit)
05 Sep - 01:21:09 10° W 01:23:30 18° NW 01:25:50 10° N night (unlit)
05 Sep - 16:22:32 10° NNW 16:25:32 32° NE 16:28:33 10° ESE daylight
05 Sep - 17:59:09 10° W 18:02:01 26° SSW 18:04:54 10° SSE daylight
05 Sep - 22:51:51 10° SSW 22:54:40 24° SSE 22:57:28 10° E night (unlit)
06 Sep - 00:28:06 10° WSW 00:31:12 36° NW 00:34:15 10° NNE night (unlit)
06 Sep - 15:31:06 10° N 15:33:14 16° NE 15:35:24 10° E daylight
06 Sep - 17:06:14 10° WNW 17:09:26 45° SW 17:12:40 10° SE daylight
06 Sep - 18:45:23 10° SW 18:46:35 11° SSW 18:47:47 10° S visible
06 Sep - 21:59:46 10° SSW 22:01:59 16° SSE 22:04:13 10° ESE night (unlit)
06 Sep - 23:35:29 10° SW 23:38:49 78° NW 23:42:06 10° NE night (unlit)
07 Sep - 16:13:38 10° NW 16:16:57 89° NE 16:20:17 10° SE daylight
07 Sep - 17:51:42 10° WSW 17:53:49 16° SSW 17:55:55 10° SSE daylight
07 Sep - 21:07:50 10° S 21:09:14 12° SSE 21:10:37 10° SE visible
07 Sep - 22:43:04 10° SW 22:46:20 51° SE 22:49:34 10° ENE night (unlit)
08 Sep - 00:20:35 10° W 00:22:28 14° NW 00:24:21 10° NNW night (unlit)
08 Sep - 15:21:24 10° NNW 15:24:32 41° NE 15:27:42 10° ESE daylight
08 Sep - 16:58:24 10° W 17:01:06 23° SSW 17:03:51 10° SSE daylight
08 Sep - 21:50:48 10° SSW 21:53:45 29° SSE 21:56:42 10° E night (unlit)
08 Sep - 23:27:16 10° WSW 23:30:11 28° NW 23:33:05 10° NNE night (unlit)
